contact:dominique.lefevre@mio.osupytheas.fr, maurice.libes@osupytheas.fr, didier.mallarino@osupytheas.fr
Project:EMSO http://www.emso-fr.org/EMSO-France
Depth: 2436.0 m
Title:EMSO Ligure Ouest : Data MII capteur MICROCAT
DateTime_Computer,Latitude,Longitude,Temperature,Conductivity,Pressure,DateTime_Instrument
DateTime_Computer,Latitude,Longitude,degC,S m-1,dbar,DateTime_Instrument
2021-07-24T00:01:51Z,42.805,6.029,13.2996,4.60009,2470.413,2021-7-24T02:03:08Z
2021-07-24T00:04:54Z,42.805,6.029,13.2997,4.60007,2470.437,2021-7-24T02:06:11Z
2021-07-24T00:07:57Z,42.805,6.029,13.2998,4.60006,2470.427,2021-7-24T02:09:14Z
2021-07-24T00:11:00Z,42.805,6.029,13.2999,4.60008,2470.474,2021-7-24T02:12:17Z
2021-07-24T00:14:04Z,42.805,6.029,13.2998,4.60009,2470.39,2021-7-24T02:15:20Z
2021-07-24T00:17:07Z,42.805,6.029,13.3000,4.60011,2470.39,2021-7-24T02:18:23Z
2021-07-24T00:20:10Z,42.805,6.029,13.2998,4.60008,2470.404,2021-7-24T02:21:27Z
2021-07-24T00:23:13Z,42.805,6.029,13.2997,4.60007,2470.366,2021-7-24T02:24:30Z
2021-07-24T00:26:16Z,42.805,6.029,13.2998,4.60007,2470.366,2021-7-24T02:27:33Z
2021-07-24T00:29:19Z,42.805,6.029,13.2996,4.60009,2470.427,2021-7-24T02:30:36Z
2021-07-24T00:32:22Z,42.805,6.029,13.2997,4.60011,2470.39,2021-7-24T02:33:39Z
2021-07-24T00:35:25Z,42.805,6.029,13.3000,4.60009,2470.413,2021-7-24T02:36:42Z
2021-07-24T00:38:29Z,42.805,6.029,13.3001,4.60009,2470.404,2021-7-24T02:39:45Z
2021-07-24T00:41:32Z,42.805,6.029,13.2996,4.60009,2470.39,2021-7-24T02:42:48Z
2021-07-24T00:44:35Z,42.805,6.029,13.2998,4.60009,2470.343,2021-7-24T02:45:52Z
2021-07-24T00:47:38Z,42.805,6.029,13.2993,4.60009,2470.39,2021-7-24T02:48:55Z
2021-07-24T00:50:41Z,42.805,6.029,13.2996,4.60009,2470.38,2021-7-24T02:51:58Z
2021-07-24T00:53:44Z,42.805,6.029,13.2995,4.60006,2470.39,2021-7-24T02:55:01Z
2021-07-24T00:56:47Z,42.805,6.029,13.2996,4.60007,2470.39,2021-7-24T02:58:04Z
2021-07-24T00:59:50Z,42.805,6.029,13.2998,4.60009,2470.343,2021-7-24T03:01:07Z
2021-07-24T01:02:54Z,42.805,6.029,13.2998,4.60009,2470.357,2021-7-24T03:04:10Z
2021-07-24T01:05:57Z,42.805,6.029,13.2997,4.60008,2470.39,2021-7-24T03:07:13Z
2021-07-24T01:09:00Z,42.805,6.029,13.2996,4.60011,2470.366,2021-7-24T03:10:16Z
2021-07-24T01:12:03Z,42.805,6.029,13.2996,4.60006,2470.376,2021-7-24T03:13:20Z
2021-07-24T01:15:06Z,42.805,6.029,13.3000,4.60007,2470.357,2021-7-24T03:16:23Z
2021-07-24T01:18:09Z,42.805,6.029,13.2999,4.60009,2470.404,2021-7-24T03:19:26Z
2021-07-24T01:21:12Z,42.805,6.029,13.2996,4.60009,2470.38,2021-7-24T03:22:29Z
2021-07-24T01:24:15Z,42.805,6.029,13.3002,4.60008,2470.33,2021-7-24T03:25:32Z
2021-07-24T01:27:19Z,42.805,6.029,13.2997,4.60013,2470.357,2021-7-24T03:28:35Z
2021-07-24T01:30:22Z,42.805,6.029,13.2998,4.60008,2470.38,2021-7-24T03:31:38Z
2021-07-24T01:33:25Z,42.805,6.029,13.2999,4.60008,2470.343,2021-7-24T03:34:41Z
2021-07-24T01:36:28Z,42.805,6.029,13.2995,4.60008,2470.343,2021-7-24T03:37:45Z
2021-07-24T01:39:31Z,42.805,6.029,13.2998,4.60009,2470.357,2021-7-24T03:40:48Z
2021-07-24T01:42:34Z,42.805,6.029,13.2999,4.60008,2470.404,2021-7-24T03:43:51Z
2021-07-24T01:45:37Z,42.805,6.029,13.2998,4.60008,2470.343,2021-7-24T03:46:54Z
2021-07-24T01:48:40Z,42.805,6.029,13.2996,4.60008,2470.343,2021-7-24T03:49:57Z
2021-07-24T01:51:44Z,42.805,6.029,13.2996,4.60009,2470.366,2021-7-24T03:53:00Z
2021-07-24T01:54:47Z,42.805,6.029,13.2993,4.60009,2470.33,2021-7-24T03:56:03Z
2021-07-24T01:57:50Z,42.805,6.029,13.2994,4.60016,2470.343,2021-7-24T03:59:06Z
2021-07-24T02:00:53Z,42.805,6.029,13.3000,4.60009,2470.38,2021-7-24T04:02:10Z
2021-07-24T02:03:56Z,42.805,6.029,13.2996,4.60008,2470.343,2021-7-24T04:05:13Z
2021-07-24T02:06:59Z,42.805,6.029,13.2996,4.60009,2470.343,2021-7-24T04:08:16Z
2021-07-24T02:10:02Z,42.805,6.029,13.2996,4.60007,2470.343,2021-7-24T04:11:19Z
2021-07-24T02:13:05Z,42.805,6.029,13.2997,4.60008,2470.38,2021-7-24T04:14:22Z
2021-07-24T02:16:09Z,42.805,6.029,13.3000,4.60009,2470.357,2021-7-24T04:17:25Z
2021-07-24T02:19:12Z,42.805,6.029,13.3000,4.60007,2470.366,2021-7-24T04:20:28Z
2021-07-24T02:22:15Z,42.805,6.029,13.2994,4.60005,2470.343,2021-7-24T04:23:31Z
2021-07-24T02:25:18Z,42.805,6.029,13.2997,4.60006,2470.343,2021-7-24T04:26:35Z
2021-07-24T02:28:21Z,42.805,6.029,13.2993,4.60006,2470.366,2021-7-24T04:29:38Z
2021-07-24T02:31:24Z,42.805,6.029,13.2994,4.60007,2470.343,2021-7-24T04:32:41Z
2021-07-24T02:34:27Z,42.805,6.029,13.2998,4.60006,2470.38,2021-7-24T04:35:44Z
2021-07-24T02:37:30Z,42.805,6.029,13.2995,4.60009,2470.366,2021-7-24T04:38:47Z
2021-07-24T02:40:34Z,42.805,6.029,13.2997,4.60007,2470.343,2021-7-24T04:41:50Z
2021-07-24T02:43:37Z,42.805,6.029,13.2993,4.60005,2470.38,2021-7-24T04:44:53Z
2021-07-24T02:46:40Z,42.805,6.029,13.2996,4.60004,2470.366,2021-7-24T04:47:56Z
2021-07-24T02:49:43Z,42.805,6.029,13.2994,4.60008,2470.343,2021-7-24T04:51:00Z
2021-07-24T02:52:46Z,42.805,6.029,13.2997,4.60006,2470.357,2021-7-24T04:54:03Z
2021-07-24T02:55:49Z,42.805,6.029,13.2993,4.60006,2470.38,2021-7-24T04:57:06Z
2021-07-24T02:58:52Z,42.805,6.029,13.2994,4.60005,2470.376,2021-7-24T05:00:09Z
2021-07-24T03:01:55Z,42.805,6.029,13.3001,4.60005,2470.343,2021-7-24T05:03:12Z
2021-07-24T03:04:58Z,42.805,6.029,13.2994,4.60005,2470.38,2021-7-24T05:06:15Z
2021-07-24T03:08:02Z,42.805,6.029,13.2988,4.60006,2470.38,2021-7-24T05:09:18Z
2021-07-24T03:11:05Z,42.805,6.029,13.2993,4.60004,2470.38,2021-7-24T05:12:21Z
2021-07-24T03:14:08Z,42.805,6.029,13.2996,4.60004,2470.357,2021-7-24T05:15:25Z
2021-07-24T03:17:11Z,42.805,6.029,13.2998,4.60004,2470.343,2021-7-24T05:18:28Z
2021-07-24T03:20:14Z,42.805,6.029,13.2993,4.60004,2470.404,2021-7-24T05:21:31Z
2021-07-24T03:23:17Z,42.805,6.029,13.2996,4.60005,2470.357,2021-7-24T05:24:34Z
2021-07-24T03:26:20Z,42.805,6.029,13.3000,4.60005,2470.366,2021-7-24T05:27:37Z
2021-07-24T03:29:23Z,42.805,6.029,13.2994,4.60005,2470.366,2021-7-24T05:30:40Z
2021-07-24T03:32:27Z,42.805,6.029,13.2997,4.60004,2470.366,2021-7-24T05:33:43Z
2021-07-24T03:35:30Z,42.805,6.029,13.2996,4.60004,2470.39,2021-7-24T05:36:46Z
2021-07-24T03:38:33Z,42.805,6.029,13.2996,4.60003,2470.38,2021-7-24T05:39:50Z
2021-07-24T03:41:36Z,42.805,6.029,13.2997,4.60005,2470.38,2021-7-24T05:42:53Z
2021-07-24T03:44:39Z,42.805,6.029,13.2996,4.60012,2470.366,2021-7-24T05:45:56Z
2021-07-24T03:47:42Z,42.805,6.029,13.2995,4.60005,2470.343,2021-7-24T05:48:59Z
2021-07-24T03:50:45Z,42.805,6.029,13.2993,4.60005,2470.404,2021-7-24T05:52:02Z
2021-07-24T03:53:48Z,42.805,6.029,13.2996,4.60003,2470.413,2021-7-24T05:55:05Z
2021-07-24T03:56:52Z,42.805,6.029,13.2995,4.60005,2470.39,2021-7-24T05:58:08Z
2021-07-24T03:59:55Z,42.805,6.029,13.2993,4.60006,2470.39,2021-7-24T06:01:11Z
2021-07-24T04:02:58Z,42.805,6.029,13.2997,4.60003,2470.39,2021-7-24T06:04:14Z
2021-07-24T04:06:01Z,42.805,6.029,13.2995,4.60006,2470.38,2021-7-24T06:07:18Z
2021-07-24T04:09:04Z,42.805,6.029,13.2993,4.60005,2470.38,2021-7-24T06:10:21Z
2021-07-24T04:12:07Z,42.805,6.029,13.2996,4.60013,2470.366,2021-7-24T06:13:24Z
2021-07-24T04:15:10Z,42.805,6.029,13.2993,4.60003,2470.404,2021-7-24T06:16:27Z
2021-07-24T04:18:13Z,42.805,6.029,13.2996,4.60005,2470.39,2021-7-24T06:19:30Z
2021-07-24T04:21:17Z,42.805,6.029,13.2995,4.60003,2470.427,2021-7-24T06:22:33Z
2021-07-24T04:24:20Z,42.805,6.029,13.2990,4.60003,2470.366,2021-7-24T06:25:36Z
2021-07-24T04:27:23Z,42.805,6.029,13.2994,4.60006,2470.39,2021-7-24T06:28:39Z
2021-07-24T04:30:26Z,42.805,6.029,13.2990,4.60005,2470.413,2021-7-24T06:31:43Z
2021-07-24T04:33:29Z,42.805,6.029,13.2994,4.60003,2470.413,2021-7-24T06:34:46Z
2021-07-24T04:36:32Z,42.805,6.029,13.2996,4.60005,2470.427,2021-7-24T06:37:49Z
2021-07-24T04:39:35Z,42.805,6.029,13.2993,4.60005,2470.39,2021-7-24T06:40:52Z
2021-07-24T04:42:38Z,42.805,6.029,13.2995,4.60009,2470.437,2021-7-24T06:43:55Z
2021-07-24T04:45:41Z,42.805,6.029,13.2993,4.60005,2470.413,2021-7-24T06:46:58Z
2021-07-24T04:48:45Z,42.805,6.029,13.2991,4.60005,2470.45,2021-7-24T06:50:01Z
2021-07-24T04:51:48Z,42.805,6.029,13.2992,4.60005,2470.413,2021-7-24T06:53:04Z
2021-07-24T04:54:51Z,42.805,6.029,13.2993,4.60004,2470.427,2021-7-24T06:56:08Z
2021-07-24T04:57:54Z,42.805,6.029,13.2995,4.60015,2470.427,2021-7-24T06:59:11Z
2021-07-24T05:00:57Z,42.805,6.029,13.2996,4.60005,2470.39,2021-7-24T07:02:14Z
2021-07-24T05:04:00Z,42.805,6.029,13.2994,4.60005,2470.437,2021-7-24T07:05:17Z
2021-07-24T05:07:03Z,42.805,6.029,13.2993,4.60003,2470.437,2021-7-24T07:08:20Z
2021-07-24T05:10:06Z,42.805,6.029,13.2993,4.60005,2470.437,2021-7-24T07:11:23Z
2021-07-24T05:13:10Z,42.805,6.029,13.2992,4.60004,2470.437,2021-7-24T07:14:26Z
2021-07-24T05:16:13Z,42.805,6.029,13.2996,4.60007,2470.413,2021-7-24T07:17:29Z
2021-07-24T05:19:16Z,42.805,6.029,13.2997,4.60007,2470.437,2021-7-24T07:20:33Z
2021-07-24T05:22:19Z,42.805,6.029,13.2995,4.60006,2470.45,2021-7-24T07:23:36Z
2021-07-24T05:25:22Z,42.805,6.029,13.2994,4.60004,2470.437,2021-7-24T07:26:39Z
2021-07-24T05:28:25Z,42.805,6.029,13.2994,4.60003,2470.46,2021-7-24T07:29:42Z
2021-07-24T05:31:28Z,42.805,6.029,13.2992,4.60004,2470.45,2021-7-24T07:32:45Z
2021-07-24T05:34:31Z,42.805,6.029,13.2992,4.60007,2470.437,2021-7-24T07:35:48Z
2021-07-24T05:37:35Z,42.805,6.029,13.2995,4.60005,2470.474,2021-7-24T07:38:51Z
2021-07-24T05:40:38Z,42.805,6.029,13.2995,4.60003,2470.497,2021-7-24T07:41:54Z
2021-07-24T05:43:41Z,42.805,6.029,13.2993,4.60005,2470.474,2021-7-24T07:44:58Z
2021-07-24T05:46:44Z,42.805,6.029,13.2998,4.60006,2470.474,2021-7-24T07:48:01Z
2021-07-24T05:49:47Z,42.805,6.029,13.2996,4.60006,2470.46,2021-7-24T07:51:04Z
2021-07-24T05:52:50Z,42.805,6.029,13.2997,4.60007,2470.483,2021-7-24T07:54:07Z
2021-07-24T05:55:53Z,42.805,6.029,13.2992,4.60004,2470.474,2021-7-24T07:57:10Z
2021-07-24T05:58:56Z,42.805,6.029,13.2997,4.60003,2470.46,2021-7-24T08:00:13Z
2021-07-24T06:02:00Z,42.805,6.029,13.2991,4.60004,2470.474,2021-7-24T08:03:16Z
2021-07-24T06:05:03Z,42.805,6.029,13.2997,4.60003,2470.497,2021-7-24T08:06:19Z
2021-07-24T06:08:06Z,42.805,6.029,13.2998,4.60003,2470.46,2021-7-24T08:09:23Z
2021-07-24T06:11:09Z,42.805,6.029,13.2992,4.60003,2470.483,2021-7-24T08:12:26Z
2021-07-24T06:14:12Z,42.805,6.029,13.2997,4.60003,2470.497,2021-7-24T08:15:29Z
2021-07-24T06:17:15Z,42.805,6.029,13.2994,4.60005,2470.497,2021-7-24T08:18:32Z
2021-07-24T06:20:18Z,42.805,6.029,13.2996,4.60004,2470.45,2021-7-24T08:21:35Z
2021-07-24T06:23:21Z,42.805,6.029,13.2991,4.60006,2470.483,2021-7-24T08:24:38Z
2021-07-24T06:26:25Z,42.805,6.029,13.2997,4.60010,2470.483,2021-7-24T08:27:41Z
2021-07-24T06:29:28Z,42.805,6.029,13.2992,4.60003,2470.497,2021-7-24T08:30:44Z
2021-07-24T06:32:31Z,42.805,6.029,13.2993,4.60005,2470.483,2021-7-24T08:33:48Z
2021-07-24T06:35:34Z,42.805,6.029,13.2993,4.60004,2470.46,2021-7-24T08:36:51Z
2021-07-24T06:38:37Z,42.805,6.029,13.2996,4.60003,2470.497,2021-7-24T08:39:54Z
2021-07-24T06:41:40Z,42.805,6.029,13.2996,4.60006,2470.46,2021-7-24T08:42:57Z
2021-07-24T06:44:43Z,42.805,6.029,13.2993,4.60009,2470.497,2021-7-24T08:46:00Z
2021-07-24T06:47:46Z,42.805,6.029,13.2996,4.60016,2470.46,2021-7-24T08:49:03Z
2021-07-24T06:50:50Z,42.805,6.029,13.2994,4.60003,2470.46,2021-7-24T08:52:06Z
2021-07-24T06:53:53Z,42.805,6.029,13.2994,4.60005,2470.483,2021-7-24T08:55:09Z
2021-07-24T06:56:56Z,42.805,6.029,13.2996,4.60005,2470.46,2021-7-24T08:58:13Z
2021-07-24T06:59:59Z,42.805,6.029,13.2994,4.60012,2470.46,2021-7-24T09:01:16Z
2021-07-24T07:03:02Z,42.805,6.029,13.2993,4.60005,2470.497,2021-7-24T09:04:19Z
2021-07-24T07:06:05Z,42.805,6.029,13.2991,4.60003,2470.483,2021-7-24T09:07:22Z
2021-07-24T07:09:08Z,42.805,6.029,13.2991,4.60003,2470.437,2021-7-24T09:10:25Z
2021-07-24T07:12:11Z,42.805,6.029,13.2994,4.60003,2470.52,2021-7-24T09:13:28Z
2021-07-24T07:15:15Z,42.805,6.029,13.2992,4.60004,2470.46,2021-7-24T09:16:31Z
2021-07-24T07:18:18Z,42.805,6.029,13.2991,4.60003,2470.46,2021-7-24T09:19:34Z
2021-07-24T07:21:21Z,42.805,6.029,13.2995,4.60003,2470.46,2021-7-24T09:22:37Z
2021-07-24T07:24:24Z,42.805,6.029,13.2996,4.60006,2470.52,2021-7-24T09:25:41Z
2021-07-24T07:27:27Z,42.805,6.029,13.2997,4.60010,2470.483,2021-7-24T09:28:44Z
2021-07-24T07:30:30Z,42.805,6.029,13.2993,4.60004,2470.507,2021-7-24T09:31:47Z
2021-07-24T07:33:33Z,42.805,6.029,13.2992,4.60003,2470.483,2021-7-24T09:34:50Z
2021-07-24T07:36:36Z,42.805,6.029,13.2996,4.60003,2470.46,2021-7-24T09:37:53Z
2021-07-24T07:39:39Z,42.805,6.029,13.2995,4.60005,2470.483,2021-7-24T09:40:56Z
2021-07-24T07:42:43Z,42.805,6.029,13.2993,4.60004,2470.474,2021-7-24T09:43:59Z
2021-07-24T07:45:46Z,42.805,6.029,13.2991,4.60003,2470.474,2021-7-24T09:47:02Z
2021-07-24T07:48:49Z,42.805,6.029,13.2996,4.60005,2470.497,2021-7-24T09:50:06Z
2021-07-24T07:51:52Z,42.805,6.029,13.2993,4.60006,2470.46,2021-7-24T09:53:09Z
2021-07-24T07:54:55Z,42.805,6.029,13.2992,4.60004,2470.45,2021-7-24T09:56:12Z
2021-07-24T07:57:58Z,42.805,6.029,13.2992,4.60003,2470.437,2021-7-24T09:59:15Z
2021-07-24T08:01:01Z,42.805,6.029,13.2993,4.60003,2470.497,2021-7-24T10:02:18Z
2021-07-24T08:04:04Z,42.805,6.029,13.2994,4.60003,2470.437,2021-7-24T10:05:21Z
2021-07-24T08:07:08Z,42.805,6.029,13.2996,4.60005,2470.46,2021-7-24T10:08:24Z
2021-07-24T08:10:11Z,42.805,6.029,13.2994,4.60003,2470.427,2021-7-24T10:11:27Z
2021-07-24T08:13:14Z,42.805,6.029,13.2993,4.60009,2470.474,2021-7-24T10:14:31Z
2021-07-24T08:16:17Z,42.805,6.029,13.2993,4.60003,2470.497,2021-7-24T10:17:34Z
2021-07-24T08:19:20Z,42.805,6.029,13.2992,4.60004,2470.437,2021-7-24T10:20:37Z
2021-07-24T08:22:23Z,42.805,6.029,13.2998,4.60003,2470.427,2021-7-24T10:23:40Z
2021-07-24T08:25:26Z,42.805,6.029,13.2990,4.60003,2470.474,2021-7-24T10:26:43Z
2021-07-24T08:28:30Z,42.805,6.029,13.2991,4.60003,2470.437,2021-7-24T10:29:46Z
2021-07-24T08:31:33Z,42.805,6.029,13.2990,4.60004,2470.474,2021-7-24T10:32:49Z
2021-07-24T08:34:36Z,42.805,6.029,13.2990,4.60006,2470.427,2021-7-24T10:35:52Z
2021-07-24T08:37:39Z,42.805,6.029,13.2996,4.60004,2470.497,2021-7-24T10:38:56Z
2021-07-24T08:40:42Z,42.805,6.029,13.2991,4.60004,2470.437,2021-7-24T10:41:59Z
2021-07-24T08:43:45Z,42.805,6.029,13.2991,4.60006,2470.474,2021-7-24T10:45:02Z
2021-07-24T08:46:48Z,42.805,6.029,13.2993,4.60006,2470.45,2021-7-24T10:48:05Z
2021-07-24T08:49:51Z,42.805,6.029,13.2993,4.60003,2470.45,2021-7-24T10:51:08Z
2021-07-24T08:52:55Z,42.805,6.029,13.2993,4.60004,2470.413,2021-7-24T10:54:11Z
2021-07-24T08:55:58Z,42.805,6.029,13.2995,4.60004,2470.39,2021-7-24T10:57:14Z
2021-07-24T08:59:01Z,42.805,6.029,13.2991,4.60005,2470.413,2021-7-24T11:00:17Z
2021-07-24T09:02:04Z,42.805,6.029,13.2992,4.60003,2470.413,2021-7-24T11:03:21Z
2021-07-24T09:05:07Z,42.805,6.029,13.2993,4.60005,2470.46,2021-7-24T11:06:24Z
2021-07-24T09:08:10Z,42.805,6.029,13.2992,4.60003,2470.427,2021-7-24T11:09:27Z
2021-07-24T09:11:13Z,42.805,6.029,13.2993,4.60003,2470.45,2021-7-24T11:12:30Z
2021-07-24T09:14:16Z,42.805,6.029,13.2993,4.60003,2470.427,2021-7-24T11:15:33Z
2021-07-24T09:17:20Z,42.805,6.029,13.2995,4.60006,2470.413,2021-7-24T11:18:36Z
2021-07-24T09:20:23Z,42.805,6.029,13.2992,4.60004,2470.437,2021-7-24T11:21:39Z
2021-07-24T09:23:26Z,42.805,6.029,13.2997,4.60003,2470.413,2021-7-24T11:24:42Z
2021-07-24T09:26:29Z,42.805,6.029,13.2995,4.60003,2470.427,2021-7-24T11:27:46Z
2021-07-24T09:29:32Z,42.805,6.029,13.2993,4.60004,2470.437,2021-7-24T11:30:49Z
2021-07-24T09:32:35Z,42.805,6.029,13.2993,4.60005,2470.437,2021-7-24T11:33:52Z
2021-07-24T09:35:38Z,42.805,6.029,13.2996,4.60003,2470.413,2021-7-24T11:36:55Z
2021-07-24T09:38:41Z,42.805,6.029,13.2996,4.60005,2470.413,2021-7-24T11:39:58Z
2021-07-24T09:41:45Z,42.805,6.029,13.2991,4.60003,2470.39,2021-7-24T11:43:01Z
2021-07-24T09:44:48Z,42.805,6.029,13.2996,4.60005,2470.427,2021-7-24T11:46:04Z
2021-07-24T09:47:51Z,42.805,6.029,13.2992,4.60004,2470.404,2021-7-24T11:49:08Z
2021-07-24T09:50:54Z,42.805,6.029,13.2993,4.60003,2470.39,2021-7-24T11:52:11Z
2021-07-24T09:53:57Z,42.805,6.029,13.2993,4.60003,2470.413,2021-7-24T11:55:14Z
2021-07-24T09:57:00Z,42.805,6.029,13.2996,4.60003,2470.39,2021-7-24T11:58:17Z
2021-07-24T10:00:03Z,42.805,6.029,13.2993,4.60004,2470.427,2021-7-24T12:01:20Z
2021-07-24T10:03:06Z,42.805,6.029,13.2994,4.60003,2470.366,2021-7-24T12:04:23Z
2021-07-24T10:06:10Z,42.805,6.029,13.2992,4.60003,2470.404,2021-7-24T12:07:26Z
2021-07-24T10:09:13Z,42.805,6.029,13.2993,4.60003,2470.39,2021-7-24T12:10:29Z
2021-07-24T10:12:16Z,42.805,6.029,13.2993,4.60004,2470.366,2021-7-24T12:13:33Z
2021-07-24T10:15:19Z,42.805,6.029,13.2991,4.60003,2470.366,2021-7-24T12:16:36Z
2021-07-24T10:18:22Z,42.805,6.029,13.2995,4.60004,2470.38,2021-7-24T12:19:39Z
2021-07-24T10:21:25Z,42.805,6.029,13.2994,4.60004,2470.39,2021-7-24T12:22:42Z
2021-07-24T10:24:28Z,42.805,6.029,13.2995,4.60003,2470.357,2021-7-24T12:25:45Z
2021-07-24T10:27:32Z,42.805,6.029,13.2994,4.60004,2470.38,2021-7-24T12:28:48Z
2021-07-24T10:30:35Z,42.805,6.029,13.2994,4.60003,2470.404,2021-7-24T12:31:51Z
2021-07-24T10:33:38Z,42.805,6.029,13.2998,4.60003,2470.38,2021-7-24T12:34:54Z
2021-07-24T10:36:41Z,42.805,6.029,13.2995,4.60003,2470.404,2021-7-24T12:37:58Z
2021-07-24T10:39:44Z,42.805,6.029,13.2996,4.60005,2470.39,2021-7-24T12:41:01Z
2021-07-24T10:42:47Z,42.805,6.029,13.2998,4.60006,2470.357,2021-7-24T12:44:04Z
2021-07-24T10:45:50Z,42.805,6.029,13.2996,4.60004,2470.353,2021-7-24T12:47:07Z
2021-07-24T10:48:53Z,42.805,6.029,13.2995,4.60004,2470.343,2021-7-24T12:50:10Z
2021-07-24T10:51:57Z,42.805,6.029,13.2992,4.60003,2470.343,2021-7-24T12:53:13Z
2021-07-24T10:55:00Z,42.805,6.029,13.2989,4.60008,2470.357,2021-7-24T12:56:16Z
2021-07-24T10:58:03Z,42.805,6.029,13.2992,4.60003,2470.357,2021-7-24T12:59:20Z
2021-07-24T11:01:06Z,42.805,6.029,13.2994,4.60003,2470.357,2021-7-24T13:02:23Z
2021-07-24T11:04:09Z,42.805,6.029,13.2994,4.60003,2470.334,2021-7-24T13:05:26Z
2021-07-24T11:07:12Z,42.805,6.029,13.2997,4.60006,2470.334,2021-7-24T13:08:29Z
2021-07-24T11:10:15Z,42.805,6.029,13.2998,4.60006,2470.357,2021-7-24T13:11:32Z
2021-07-24T11:13:18Z,42.805,6.029,13.2993,4.60006,2470.366,2021-7-24T13:14:35Z
2021-07-24T11:16:22Z,42.805,6.029,13.2993,4.60005,2470.334,2021-7-24T13:17:38Z
2021-07-24T11:19:25Z,42.805,6.029,13.2998,4.60006,2470.31,2021-7-24T13:20:41Z
2021-07-24T11:22:28Z,42.805,6.029,13.2992,4.60006,2470.343,2021-7-24T13:23:45Z
2021-07-24T11:25:31Z,42.805,6.029,13.2993,4.60005,2470.31,2021-7-24T13:26:48Z
2021-07-24T11:28:34Z,42.805,6.029,13.2993,4.60008,2470.334,2021-7-24T13:29:51Z
2021-07-24T11:31:37Z,42.805,6.029,13.2995,4.60007,2470.343,2021-7-24T13:32:54Z
2021-07-24T11:34:40Z,42.805,6.029,13.2997,4.60006,2470.357,2021-7-24T13:35:57Z
2021-07-24T11:37:43Z,42.805,6.029,13.2990,4.60005,2470.32,2021-7-24T13:39:00Z
2021-07-24T11:40:47Z,42.805,6.029,13.2993,4.60011,2470.32,2021-7-24T13:42:03Z
2021-07-24T11:43:50Z,42.805,6.029,13.2996,4.60006,2470.334,2021-7-24T13:45:06Z
2021-07-24T11:46:53Z,42.805,6.029,13.2998,4.60003,2470.334,2021-7-24T13:48:10Z
2021-07-24T11:49:56Z,42.805,6.029,13.3000,4.60006,2470.32,2021-7-24T13:51:13Z
2021-07-24T11:52:59Z,42.805,6.029,13.2994,4.60005,2470.334,2021-7-24T13:54:16Z
2021-07-24T11:56:02Z,42.805,6.029,13.2997,4.60008,2470.32,2021-7-24T13:57:19Z
2021-07-24T11:59:05Z,42.805,6.029,13.2994,4.60007,2470.273,2021-7-24T14:00:22Z
2021-07-24T12:02:08Z,42.805,6.029,13.2993,4.60008,2470.287,2021-7-24T14:03:25Z
2021-07-24T12:05:12Z,42.805,6.029,13.2996,4.60008,2470.334,2021-7-24T14:06:28Z
2021-07-24T12:08:15Z,42.805,6.029,13.2993,4.60007,2470.32,2021-7-24T14:09:31Z
2021-07-24T12:11:18Z,42.805,6.029,13.2994,4.60007,2470.273,2021-7-24T14:12:35Z
2021-07-24T12:14:21Z,42.805,6.029,13.2993,4.60006,2470.32,2021-7-24T14:15:38Z
2021-07-24T12:17:24Z,42.805,6.029,13.2993,4.60005,2470.297,2021-7-24T14:18:41Z
2021-07-24T12:20:27Z,42.805,6.029,13.2997,4.60005,2470.287,2021-7-24T14:21:44Z
2021-07-24T12:23:30Z,42.805,6.029,13.2996,4.60006,2470.273,2021-7-24T14:24:47Z
2021-07-24T12:26:34Z,42.805,6.029,13.2996,4.60008,2470.283,2021-7-24T14:27:50Z
2021-07-24T12:29:37Z,42.805,6.029,13.2995,4.60008,2470.297,2021-7-24T14:30:53Z
2021-07-24T12:32:40Z,42.805,6.029,13.2996,4.60009,2470.31,2021-7-24T14:33:56Z
2021-07-24T12:35:43Z,42.805,6.029,13.2995,4.60007,2470.297,2021-7-24T14:37:00Z
2021-07-24T12:38:46Z,42.805,6.029,13.2996,4.60007,2470.287,2021-7-24T14:40:03Z
2021-07-24T12:41:49Z,42.805,6.029,13.2997,4.60005,2470.297,2021-7-24T14:43:06Z
2021-07-24T12:44:52Z,42.805,6.029,13.2995,4.60007,2470.297,2021-7-24T14:46:09Z
2021-07-24T12:47:55Z,42.805,6.029,13.2998,4.60009,2470.287,2021-7-24T14:49:12Z
2021-07-24T12:50:59Z,42.805,6.029,13.2994,4.60009,2470.287,2021-7-24T14:52:15Z
2021-07-24T12:54:02Z,42.805,6.029,13.2998,4.60005,2470.297,2021-7-24T14:55:18Z
2021-07-24T12:57:05Z,42.805,6.029,13.2998,4.60005,2470.297,2021-7-24T14:58:22Z
2021-07-24T13:00:08Z,42.805,6.029,13.2995,4.60006,2470.273,2021-7-24T15:01:25Z
2021-07-24T13:03:11Z,42.805,6.029,13.2994,4.60007,2470.283,2021-7-24T15:04:28Z
2021-07-24T13:06:14Z,42.805,6.029,13.2995,4.60009,2470.25,2021-7-24T15:07:31Z
2021-07-24T13:09:17Z,42.805,6.029,13.2994,4.60010,2470.297,2021-7-24T15:10:34Z
2021-07-24T13:12:20Z,42.805,6.029,13.2996,4.60006,2470.31,2021-7-24T15:13:37Z
2021-07-24T13:15:24Z,42.805,6.029,13.3001,4.60008,2470.273,2021-7-24T15:16:40Z
2021-07-24T13:18:27Z,42.805,6.029,13.2996,4.60007,2470.297,2021-7-24T15:19:43Z
2021-07-24T13:21:30Z,42.805,6.029,13.2996,4.60012,2470.287,2021-7-24T15:22:47Z
2021-07-24T13:24:33Z,42.805,6.029,13.2994,4.60011,2470.273,2021-7-24T15:25:50Z
2021-07-24T13:27:36Z,42.805,6.029,13.2997,4.60007,2470.273,2021-7-24T15:28:53Z
2021-07-24T13:30:39Z,42.805,6.029,13.2998,4.60005,2470.334,2021-7-24T15:31:56Z
2021-07-24T13:33:42Z,42.805,6.029,13.2996,4.60006,2470.357,2021-7-24T15:34:59Z
2021-07-24T13:36:45Z,42.805,6.029,13.3000,4.60007,2470.334,2021-7-24T15:38:02Z
2021-07-24T13:39:49Z,42.805,6.029,13.2995,4.60004,2470.32,2021-7-24T15:41:05Z
2021-07-24T13:42:52Z,42.805,6.029,13.2992,4.60011,2470.273,2021-7-24T15:44:08Z
2021-07-24T13:45:55Z,42.805,6.029,13.2998,4.60006,2470.297,2021-7-24T15:47:12Z
2021-07-24T13:48:58Z,42.805,6.029,13.2995,4.60007,2470.273,2021-7-24T15:50:15Z
2021-07-24T13:52:01Z,42.805,6.029,13.2995,4.60006,2470.287,2021-7-24T15:53:18Z
2021-07-24T13:55:04Z,42.805,6.029,13.2996,4.60007,2470.287,2021-7-24T15:56:21Z
2021-07-24T13:58:07Z,42.805,6.029,13.2996,4.60006,2470.297,2021-7-24T15:59:24Z
2021-07-24T14:01:10Z,42.805,6.029,13.2995,4.60008,2470.31,2021-7-24T16:02:27Z
2021-07-24T14:04:14Z,42.805,6.029,13.2998,4.60007,2470.31,2021-7-24T16:05:30Z
2021-07-24T14:07:17Z,42.805,6.029,13.2998,4.60007,2470.31,2021-7-24T16:08:33Z
2021-07-24T14:10:20Z,42.805,6.029,13.2996,4.60006,2470.334,2021-7-24T16:11:37Z
2021-07-24T14:13:23Z,42.805,6.029,13.2994,4.60007,2470.287,2021-7-24T16:14:40Z
2021-07-24T14:16:26Z,42.805,6.029,13.2993,4.60007,2470.32,2021-7-24T16:17:43Z
2021-07-24T14:19:29Z,42.805,6.029,13.2995,4.60006,2470.334,2021-7-24T16:20:46Z
2021-07-24T14:22:32Z,42.805,6.029,13.3000,4.60008,2470.334,2021-7-24T16:23:49Z
2021-07-24T14:25:36Z,42.805,6.029,13.2997,4.60007,2470.32,2021-7-24T16:26:52Z
2021-07-24T14:28:39Z,42.805,6.029,13.2995,4.60008,2470.31,2021-7-24T16:29:55Z
2021-07-24T14:31:42Z,42.805,6.029,13.2997,4.60007,2470.297,2021-7-24T16:32:58Z
2021-07-24T14:34:45Z,42.805,6.029,13.2993,4.60021,2470.32,2021-7-24T16:36:02Z
2021-07-24T14:37:48Z,42.805,6.029,13.2996,4.60008,2470.357,2021-7-24T16:39:05Z
2021-07-24T14:40:51Z,42.805,6.029,13.2998,4.60008,2470.357,2021-7-24T16:42:08Z
2021-07-24T14:43:54Z,42.805,6.029,13.2995,4.60008,2470.32,2021-7-24T16:45:11Z
2021-07-24T14:46:57Z,42.805,6.029,13.2995,4.60008,2470.31,2021-7-24T16:48:14Z
2021-07-24T14:50:01Z,42.805,6.029,13.2996,4.60008,2470.343,2021-7-24T16:51:17Z
2021-07-24T14:53:04Z,42.805,6.029,13.2998,4.60009,2470.31,2021-7-24T16:54:20Z
2021-07-24T14:56:07Z,42.805,6.029,13.2999,4.60008,2470.334,2021-7-24T16:57:24Z
2021-07-24T14:59:10Z,42.805,6.029,13.2998,4.60007,2470.31,2021-7-24T17:00:27Z
2021-07-24T15:02:13Z,42.805,6.029,13.2994,4.60009,2470.297,2021-7-24T17:03:30Z
2021-07-24T15:05:16Z,42.805,6.029,13.2996,4.60008,2470.32,2021-7-24T17:06:33Z
2021-07-24T15:08:19Z,42.805,6.029,13.2994,4.60008,2470.32,2021-7-24T17:09:36Z
2021-07-24T15:11:22Z,42.805,6.029,13.2998,4.60009,2470.32,2021-7-24T17:12:39Z
2021-07-24T15:14:26Z,42.805,6.029,13.2996,4.60010,2470.343,2021-7-24T17:15:42Z